Regional Weather Roundup
Issued by NWS Jackson, KY

Home | Current Version | Previous Version | Text Only | Print | Product List | Glossary On
Versions: 1 2 3 4 5 6 7 8 9 10 11 12 13 14 15 16 17 18 19 20 21 22 23 24 25 26 27 28 29 30 31 32 33 34 35 36 37 38 39 40 41 42 43 44 45 46 47 48 49 50
000
ASUS43 KJKL 180919
RWRJKL

EAST KENTUCKY HOURLY WEATHER ROUNDUP
NATIONAL WEATHER SERVICE JACKSON KY
400 AM EST THU DEC 18 2014

NOTE: "FAIR" INDICATES FEW OR NO CLOUDS BELOW 12,000 FEET WITH
NO SIGNIFICANT WEATHER AND/OR OBSTRUCTIONS TO VISIBILITY.

* THESE REPORTS ARE NOT UNDER NWS QUALITY CONTROL AND MAY NOT
  REPORT WEATHER SUCH AS PRECIPITATION AND FOG.

KYZ079-080-083-085-087-088-110-112-115-119-120-181000
...EASTERN KENTUCKY...

CITY           SKY/WX    TMP DP  RH WIND       PRES   REMARKS
JACKSON        CLOUDY    29  23  78 CALM      30.22F
LONDON         PTCLDY    26  22  84 CALM      30.24S
SOMERSET*      CLOUDY    23  23 100 CALM      30.27F FOG
MONTICELLO*    PTCLDY    24  23  96 CALM      30.28S
MIDDLESBORO*   MOCLDY    26  25  96 CALM      30.24S
HARLAN APT*    CLOUDY    30  30 100 CALM      30.21S
HAZARD APT*    CLOUDY    30  28  93 CALM      30.23F
BLACK MTN*       N/A     21  21 100 N3          N/A
PIKEVILLE APT* CLOUDY    28  23  80 CALM      30.21F
BIG SANDY*     CLOUDY    30  25  81 CALM      30.23F
MOREHEAD APT*  CLOUDY    28  23  80 NW5       30.26F WCI  23
ASHLAND*       CLOUDY    30  19  64 N3        30.25F
$$

KYZ035-036-041-042-044-050-067-078-099-181000
...CENTRAL KENTUCKY...

CITY           SKY/WX    TMP DP  RH WIND       PRES   REMARKS
MT STERLING*   CLOUDY    28  23  80 NE6       30.26F WCI  22
FLEMING/MASON* CLOUDY    27  21  80 N6        30.27F WCI  20
DANVILLE*      CLOUDY    27  25  93 CALM      30.27S
RICHMOND*      CLOUDY    27  23  86 CALM      30.25S
LEXINGTON      CLOUDY    28  23  81 N6        30.25F WCI  22
FRANKFORT      CLOUDY    28  21  75 N5        30.26S WCI  23
$$

KYZ091>093-OHZ055-061-077-WVZ005-015-034-035-042-181000
...SOUTHERN OHIO/WEST VIRGINIA...

CITY           SKY/WX    TMP DP  RH WIND       PRES   REMARKS
COVINGTON      CLOUDY    26  18  71 N5        30.27F WCI  20
COLUMBUS       CLOUDY    27  18  69 NW8       30.24S WCI  19
DAYTON         CLOUDY    27  18  69 W7        30.27R WCI  19
WILMINGTON     CLOUDY    25  18  74 W6        30.25F WCI  18
HUNTINGTON     CLOUDY    30  22  72 W5        30.25S WCI  25
CHARLESTON     CLOUDY    31  22  69 NW9       30.23S WCI  23
PINEVILLE*     CLOUDY    33  29  84 MISG      30.23S
BECKLEY        CLOUDY    26  19  74 NW13      30.13S WCI  15
BLUEFIELD      CLOUDY    28  21  75 NW9G20    30.11S WCI  19
$$

VAZ002-007-008-TNZ017-027-036-066-071-181000
...SOUTHWEST VIRGINIA/EAST TENNESSEE...

CITY           SKY/WX    TMP DP  RH WIND       PRES   REMARKS
WISE*          CLOUDY    30  28  93 N3        30.15F
JONESVILLE*    PTSUNNY   27  27 100 CALM      30.23R
ABINGDON*      CLEAR     32  27  83 N5        30.16S WCI  27
BRISTOL        CLEAR     26  24  92 CALM      30.19S
KNOXVILLE      CLOUDY    33  29  85 NE3       30.22S
OAK RIDGE      PTCLDY    33  29  85 CALM      30.23S
CROSSVILLE     CLOUDY    32  26  78 N5        30.19S WCI  27
NASHVILLE      DRIZZLE   33  30  88 N5        30.28S WCI  29
$$

...KEY TO REMARKS...
VSB - VISIBILITY IN MILES
WCI - WIND CHILL INDEX
HX  - HEAT INDEX

$$


USA.gov is the U.S. government's official web portal to all federal, state and local government web resources and services.